EW8513 Weather Reports


time (UTC)temp
F
wind
direction
speed
knots
gust
knots
rain 1hr
in
rain 24hr
in
rain mn
in
humidity
%
barometer
mb
20260507231538 59 63 0.9 5.2 0.00 1.81 1.64 37 1005.7
20260507230036 60 0 1.7 7.0 0.00 1.81 1.64 38 1005.5
20260507224543 60 20 0.9 8.7 0.00 1.86 1.64 36 1005.4
20260507223043 61 44 1.7 10.4 0.00 1.86 1.64 35 1005.3
20260507221538 61 16 4.3 11.3 0.00 1.86 1.64 35 1005.1
20260507220043 61 0 1.7 9.6 0.00 1.86 1.64 36 1005.1
20260507214539 62 36 2.6 7.0 0.00 1.86 1.64 34 1004.9
20260507213037 62 25 2.6 9.6 0.00 1.86 1.64 36 1004.9
20260507211537 62 18 2.6 8.7 0.00 1.86 1.64 37 1004.9
20260507210042 63 22 3.5 10.4 0.00 1.86 1.64 35 1004.8
20260507204544 63 340 0.9 10.4 0.00 1.87 1.64 35 1004.9
20260507203037 64 41 0.9 6.1 0.00 1.87 1.64 34 1004.8
20260507201542 64 70 0.9 4.3 0.00 1.87 1.64 35 1004.7
20260507200045 64 138 1.7 13.0 0.00 1.87 1.64 35 1005.0
20260507194537 64 36 2.6 8.7 0.00 2.04 1.64 35 1005.1
20260507193044 64 17 1.7 14.8 0.00 2.04 1.64 32 1005.2
20260507191545 64 21 5.2 13.9 0.00 2.04 1.64 32 1005.1
20260507190037 64 21 4.3 12.2 0.00 2.04 1.64 36 1005.3
20260507184537 65 30 2.6 9.6 0.00 2.08 1.64 32 1005.4
20260507183036 65 13 0.0 6.1 0.00 2.08 1.64 37 1005.3
20260507181537 65 11 3.5 7.0 0.00 2.08 1.64 38 1005.5
20260507180044 64 30 3.5 11.3 0.00 2.08 1.64 38 1005.5
20260507174545 64 38 3.5 8.7 0.00 2.08 1.64 41 1005.6
20260507173037 63 5 2.6 10.4 0.00 2.08 1.64 40 1005.5
20260507171538 63 74 1.7 11.3 0.00 2.08 1.64 46 1005.7
20260507170044 62 0 3.5 11.3 0.00 2.08 1.64 50 1005.9
20260507164537 61 45 1.7 6.1 0.00 2.08 1.64 53 1005.9
20260507163040 62 329 2.6 8.7 0.00 2.08 1.64 53 1006.2
20260507161539 60 32 1.7 9.6 0.00 2.08 1.64 55 1006.4
20260507160037 62 43 2.6 10.4 0.00 2.08 1.64 55 1006.5
20260507154537 61 32 0.9 10.4 0.00 2.08 1.64 57 1006.5
20260507153043 61 15 1.7 7.8 0.00 2.08 1.64 58 1006.8
20260507151540 61 14 0.0 9.6 0.00 2.08 1.64 57 1006.8
20260507150041 61 21 0.9 7.8 0.00 2.08 1.64 56 1007.0
20260507144537 60 71 0.9 9.6 0.00 2.09 1.64 57 1007.2
20260507143037 59 26 0.9 7.8 0.00 2.09 1.64 58 1007.1
20260507141543 58 30 0.0 7.0 0.00 2.09 1.64 61 1007.2
20260507140042 58 306 1.7 7.0 0.00 2.09 1.64 59 1007.2
20260507134547 57 0 0.9 8.7 0.00 2.09 1.64 61 1007.1
20260507133038 57 342 0.9 7.0 0.00 2.09 1.64 66 1007.3
20260507131552 56 24 1.7 5.2 0.00 2.09 1.64 70 1007.5
20260507130037 54 20 1.7 11.3 0.00 2.09 1.64 70 1007.6
20260507124537 53 88 0.9 8.7 0.00 2.09 1.64 78 1007.6
20260507123036 52 0 0.9 4.3 0.00 2.09 1.64 83 1007.5
20260507121538 50 25 0.0 7.0 0.00 2.09 1.64 85 1007.6
20260507120044 50 33 0.0 9.6 0.00 2.09 1.64 89 1007.7
20260507114538 49 0 0.0 5.2 0.00 2.09 1.64 91 1007.4
20260507113037 49 0 0.0 0.0 0.00 2.09 1.64 91 1007.7
20260507111537 49 0 0.0 1.7 0.00 2.09 1.64 91 1007.4
20260507110037 49 0 0.0 0.9 0.00 2.09 1.64 91 1007.5
20260507104537 49 0 0.0 2.6 0.00 2.09 1.64 90 1007.6
20260507103040 49 0 0.0 1.7 0.00 2.09 1.64 90 1006.9
20260507101538 49 0 0.0 1.7 0.00 2.09 1.64 90 1006.9
20260507100040 50 0 0.0 0.9 0.00 2.09 1.64 90 1006.7
20260507094539 50 0 0.0 2.6 0.00 2.09 1.64 90 1006.8
20260507093037 51 0 0.0 0.0 0.00 2.09 1.64 90 1006.9
20260507091543 51 0 0.0 3.5 0.00 2.09 1.64 90 1007.1
20260507090039 51 0 0.0 0.9 0.00 2.09 1.64 90 1007.0
20260507084538 52 0 0.0 1.7 0.00 2.09 1.64 90 1007.0
20260507083040 52 0 0.0 3.5 0.00 2.09 1.64 89 1006.7
20260507081544 52 0 0.0 4.3 0.00 2.09 1.64 89 1006.5
20260507080036 53 0 0.0 4.3 0.00 2.09 1.64 88 1007.0
20260507074552 53 0 0.0 5.2 0.00 2.09 1.64 88 1006.6
20260507073042 53 0 0.0 3.5 0.00 2.09 1.64 88 1006.1
20260507071541 53 0 0.0 4.3 0.00 2.09 1.64 89 1006.1
20260507070040 53 0 0.0 4.3 0.00 2.09 1.64 90 1006.0
20260507064538 53 0 0.9 7.0 0.00 2.09 1.64 90 1006.1
20260507063037 54 346 0.0 4.3 0.00 2.09 1.64 91 1006.0
20260507061537 55 346 0.0 3.5 0.00 2.09 1.64 92 1005.9
20260507060038 55 0 0.0 4.3 0.00 2.09 1.64 92 1005.9
20260507054547 56 0 0.0 3.5 1.37 2.09 1.64 93 1006.2
20260507053049 56 0 1.7 7.8 1.64 2.09 1.64 93 1006.0
20260507051539 57 0 0.9 4.3 1.64 2.09 1.64 94 1005.9
20260507050038 57 21 0.9 7.8 1.64 2.09 1.64 94 1006.2
20260507044544 57 272 0.9 5.2 0.09 0.55 0.09 94 1006.1
20260507043045 58 0 0.9 8.7 0.00 0.46 0.00 94 1006.0
20260507041542 59 0 0.0 1.7 0.01 0.46 0.00 95 1006.0
20260507040038 60 0 0.0 3.5 0.06 0.46 0.00 95 1005.9
20260507034537 60 0 0.0 3.5 0.06 0.46 0.46 95 1005.8
20260507033039 60 0 0.0 3.5 0.06 0.46 0.46 95 1005.7
20260507031600 59 106 0.9 2.6 0.05 0.45 0.45 95 1005.4
20260507030049 59 106 0.0 6.1 0.00 0.40 0.40 95 1005.1
20260507024542 59 0 0.0 4.3 0.00 0.40 0.40 95 1005.1
20260507023037 59 0 0.0 7.8 0.02 0.40 0.40 95 1005.4
20260507021536 59 0 0.0 7.0 0.02 0.40 0.40 94 1005.3
20260507020040 59 188 0.0 2.6 0.03 0.40 0.40 94 1005.3
20260507014547 59 0 0.9 5.2 0.03 0.40 0.40 94 1005.4
20260507013037 59 0 0.0 6.1 0.01 0.38 0.38 94 1005.4
20260507011538 59 150 0.0 6.1 0.01 0.38 0.38 94 1005.6
20260507010041 59 0 0.9 8.7 0.00 0.37 0.37 93 1005.6
20260507004544 59 0 1.7 5.2 0.00 0.37 0.37 93 1005.7
20260507003048 59 0 0.0 5.2 0.05 0.37 0.37 93 1005.6
20260507001540 60 161 2.6 7.8 0.08 0.37 0.37 93 1005.4
20260507000041 60 147 2.6 6.1 0.08 0.37 0.37 93 1005.4
20260506234537 60 0 0.0 5.2 0.08 0.37 0.37 92 1005.5
20260506233042 61 187 0.0 7.0 0.03 0.32 0.32 92 1005.4